Showing default

SJ-30C, 66547

Orbit data source: Space-Track

SJ-30C, 66547 is a payload satellite owned by CASC (CN) in LEO that was launched on Wed, 19 Nov 2025 UTC via a CHANG ZHENG 2C launch vehicle from the Jiuquan Satellite Launch Center, China (JSC). Payload-class satellites include a variety of spacecraft equipped with specific instruments for various scientific and technological missions. These include communications satellites like Starlink; space stations such as the ISS; scientific satellites like the Hubble; Earth observation satellites from companies like Planet Labs, Umbra, and HawkEye 360; GPS; miniature CubeSats for education and research; and military/defense satellites.

Loading next visibility...
Identifier
66547, 2025-266C
Orbit
LEO
Country
Flag of CNCN / PRC
Related business
Manufacturer
SAST
Mission
Operational Defense Technology
Bus & Motor
SJ30, Unknown motor
Mass
~500 kg wet, ~500 kg dry
Launch date (UTC)
2025-11-19 (7 months ago)
Launch vehicle
CHANG ZHENG 2C
Launch site
Jiuquan Satellite Launch Center, China (JSC)
Object type
Payload
Rocket body
Debris
Shape & HBR
Box + 2 Pan, 14.5 m
Radar Cross Section
3.585 m², Large (>1 m²)

Expand to show TLE details & history
Last TLE update: 9 hours ago

TLE from 9 hours ago
0 SJ-30C
1 66547U 25266C   26171.47109747  .00005440  00000-0  29958-3 0  9994
2 66547  51.7967 164.0136 0007329 266.2528  93.7611 15.15491334 32354
Epoch: 2026-06-20T11:18Z
TLE epoch observation values (Epoch: 2026-06-20T11:18:22.821Z)
Latitude
0.00004°
Longitude
85.73329°
Altitude
520.57 km
Speed
7.604 km/s
True Right ascension
10h 56m 03s
True Declination
0° 00' 00"
Sunlit
Object was in daylight at epoch
Visualization orbit readout
Latitude
Unknown
Longitude
Unknown
Altitude
Unknown
Speed
Unknown
Apparent Right ascension
Unknown
Apparent Declination
Unknown
Sunlit
N/A
Visualization observer readout
Local Sidereal Time
07:12:51
Azimuth
Unknown
Elevation
Unknown
Doppler factor
Unknown
Orbital elements
Apogee altitude
525.018 km
Perigee altitude
514.907 km
Semi-major axis
6,898.099 km
Eccentricity
0.00073
Inclination
51.7967°
RAAN
164.0136°
Arg. of periapsis
266.2528°
True anomaly
93.8449°
Mean anomaly
93.7611°
Eccentric anomaly
93.803°
Mean motion
3.78834 °/min
Orbital period
95.03 mins
BSTAR
0.00029958
Loading maneuver chart data...
Computing Atmospheric mass density...
Loading historical data...
Loading historical data...
Loading historical data...
Loading historical data...
Loading historical data...
Loading historical data...
Loading historical data...
Other satellites on launch #266 in the year 2025 (2025-11-19 UTC)

Documentation

Showing up to 5 results
|